Regional Weather Roundup
Issued by NWS

Home | Current Version | Previous Version | Text Only | Print | Product List | Glossary On
Versions: 1 2 3 4 5 6 7 8 9 10 11 12 13 14 15 16 17 18 19 20 21 22 23 24 25 26 27 28 29 30 31 32 33 34 35 36 37 38 39 40 41 42 43 44 45 46 47 48 49 50
000
ASUS43 KBIS 171802
RWRND

NORTH DAKOTA REGIONAL WEATHER ROUNDUP
NATIONAL WEATHER SERVICE BISMARCK ND
100 PM CDT THU AUG 17 2017

NOTE: "FAIR" INDICATES FEW OR NO CLOUDS BELOW 12,000 FEET WITH NO
SIGNIFICANT WEATHER AND/OR OBSTRUCTIONS TO VISIBILITY.


NDZ001>003-009>011-017-171900-
NORTHWEST NORTH DAKOTA

CITY           SKY/WX    TMP DP  RH WIND       PRES   REMARKS
WILLISTON      SUNNY     79  56  45 CALM      29.84S
6HR MIN TEMP:  62; 6HR MAX TEMP:  79;

MINOT          MOSUNNY   83  47  28 SE9G20    29.86F
MINOT AFB      MOSUNNY   80  49  33 S10       29.85S
$$

NDZ018>021-031>035-040>046-171900-
SOUTHWEST NORTH DAKOTA

CITY           SKY/WX    TMP DP  RH WIND       PRES   REMARKS
BISMARCK       SUNNY     79  52  38 SE13      29.89F
6HR MIN TEMP:  54; 6HR MAX TEMP:  79;

DICKINSON      SUNNY     80  53  39 W6        29.87S
GARRISON         N/A     76  56  49 S14       29.86F
6HR MIN TEMP:  55; 6HR MAX TEMP:  76;

HETTINGER ARPT SUNNY     80  50  34 S6        29.90F
$$

NDZ004>008-012>016-024-026-027-054-171900-
NORTHEAST NORTH DAKOTA

CITY           SKY/WX    TMP DP  RH WIND       PRES   REMARKS
GRAND FORKS    MOSUNNY   73  63  70 NW5       29.84S
GRND FRKS AFB  MOSUNNY   73  62  68 N9        29.86S
DEVILS LAKE    MOSUNNY   74  53  48 W6        29.90S
$$

NDZ022-023-025-028>030-036>039-047>053-171900-
SOUTHEAST NORTH DAKOTA

CITY           SKY/WX    TMP DP  RH WIND       PRES   REMARKS
FARGO          SUNNY     74  64  71 N8        29.83S
6HR MIN TEMP:  61; 6HR MAX TEMP:  74;

JAMESTOWN      SUNNY     76  57  51 NW7       29.89S
$$





USA.gov is the U.S. government's official web portal to all federal, state and local government web resources and services.